2007-01-15T12:00:00Z,17.719033,0.25854
2007-02-15T12:00:00Z,17.70108,0.172685
2007-03-15T12:00:00Z,19.417669,0.104632
2007-04-15T12:00:00Z,21.345049,0.044002
2007-05-15T12:00:00Z,25.09671,0.070275
2007-06-15T12:00:00Z,28.349431,0.071252
2007-07-15T12:00:00Z,28.196332,0.038035
2007-08-15T12:00:00Z,30.321622,0.074136
2007-09-15T12:00:00Z,29.314924,0.060576
2007-10-15T12:00:00Z,26.879793,0.104408
2007-11-15T12:00:00Z,22.251362,0.110889
2007-12-15T12:00:00Z,19.210229,0.189149
2008-01-15T12:00:00Z,17.656543,0.242186
2008-02-15T12:00:00Z,17.869912,0.18034
2008-03-15T12:00:00Z,18.411462,0.118076
2008-04-15T12:00:00Z,22.064816,0.073098
2008-05-15T12:00:00Z,25.847888,0.029112
2008-06-15T12:00:00Z,29.058938,0.055438
2008-07-15T12:00:00Z,29.257164,0.109174
2008-08-15T12:00:00Z,28.954356,0.132489
2008-09-15T12:00:00Z,28.011358,0.046865
2008-10-15T12:00:00Z,24.935535,0.106996
2008-11-15T12:00:00Z,21.513523,0.135521
2008-12-15T12:00:00Z,19.687678,0.263302
2009-01-15T12:00:00Z,18.351635,0.279189
2009-02-15T12:00:00Z,17.572344,0.24726
2009-03-15T12:00:00Z,18.83684,0.099945
2009-04-15T12:00:00Z,21.322699,0.086185
2009-05-15T12:00:00Z,26.035919,0.040624
2009-06-15T12:00:00Z,28.764379,0.054786
2009-07-15T12:00:00Z,28.639415,0.14139
2009-08-15T12:00:00Z,30.10249,0.104415
2009-09-15T12:00:00Z,28.927967,0.092864
2009-10-15T12:00:00Z,26.2306,0.124146
2009-11-15T12:00:00Z,21.072489,0.164841
2009-12-15T12:00:00Z,18.300561,0.24416
2010-01-15T12:00:00Z,14.981021,0.217411
2010-02-15T12:00:00Z,14.856137,0.180461
2010-03-15T12:00:00Z,16.22851,0.085277
2010-04-15T12:00:00Z,21.260584,0.052773
2010-05-15T12:00:00Z,26.137642,0.048089
2010-06-15T12:00:00Z,29.429902,0.051773
2010-07-15T12:00:00Z,29.932034,0.039954
2010-08-15T12:00:00Z,30.804094,0.070452
2010-09-15T12:00:00Z,29.239876,0.057615
2010-10-15T12:00:00Z,26.226415,0.098404
2010-11-15T12:00:00Z,21.972856,0.114416
2010-12-15T12:00:00Z,18.362571,0.197391
2011-01-15T12:00:00Z,16.848719,0.323804
2011-02-15T12:00:00Z,16.158675,0.233454
2011-03-15T12:00:00Z,19.271185,0.073791
2011-04-15T12:00:00Z,22.789852,0.115568
2011-05-15T12:00:00Z,25.352462,0.073812
2011-06-15T12:00:00Z,29.023794,0.095777
2011-07-15T12:00:00Z,30.416438,0.10641
2011-08-15T12:00:00Z,30.652595,0.101157
2011-09-15T12:00:00Z,29.029866,0.067401
2011-10-15T12:00:00Z,25.747096,0.063121
2011-11-15T12:00:00Z,21.60765,0.122238
2011-12-15T12:00:00Z,18.712713,0.254472
2012-01-15T12:00:00Z,17.383425,0.193336
2012-02-15T12:00:00Z,17.056426,0.170352
2012-03-15T12:00:00Z,20.141928,0.128849
2012-04-15T12:00:00Z,24.226104,0.03374
2012-05-15T12:00:00Z,26.610276,0.076526
2012-06-15T12:00:00Z,29.09684,0.045415
2012-07-15T12:00:00Z,29.478175,0.046659
2012-08-15T12:00:00Z,30.102123,0.087679
2012-09-15T12:00:00Z,28.568457,0.051435
2012-10-15T12:00:00Z,25.871658,0.10528
2012-11-15T12:00:00Z,21.826247,0.137888
2012-12-15T12:00:00Z,19.570373,0.195647
2013-01-15T12:00:00Z,17.881097,0.231111
2013-02-15T12:00:00Z,16.878782,0.154419
2013-03-15T12:00:00Z,17.417555,0.160456
2013-04-15T12:00:00Z,20.219925,0.07773
2013-05-15T12:00:00Z,23.710718,0.043193
2013-06-15T12:00:00Z,28.888554,0.09684
2013-07-15T12:00:00Z,29.050633,0.101759
2013-08-15T12:00:00Z,29.403994,0.147496
2013-09-15T12:00:00Z,29.245967,0.058699
2013-10-15T12:00:00Z,26.030363,0.130068
2013-11-15T12:00:00Z,22.314135,0.138863
2013-12-15T12:00:00Z,19.143145,0.24733
2014-01-15T12:00:00Z,17.0713,0.231189
2014-02-15T12:00:00Z,16.859695,0.21085
2014-03-15T12:00:00Z,16.910309,0.09357
2014-04-15T12:00:00Z,20.484566,0.072693
2014-05-15T12:00:00Z,23.493136,0.049205
2014-06-15T12:00:00Z,28.015803,0.066106
2014-07-15T12:00:00Z,29.424071,0.147123
2014-08-15T12:00:00Z,29.46263,0.127557
2014-09-15T12:00:00Z,28.854003,0.063481
2014-10-15T12:00:00Z,26.200618,0.116715
2014-11-15T12:00:00Z,21.137674,0.188732
2014-12-15T12:00:00Z,17.733971,0.180221
2015-01-15T12:00:00Z,17.969253,0.207374
2015-02-15T12:00:00Z,16.491021,0.174824
2015-03-15T12:00:00Z,17.766956,0.122722
2015-04-15T12:00:00Z,22.105411,0.072085
2015-05-15T12:00:00Z,25.608276,0.024371
2015-06-15T12:00:00Z,29.134164,0.03463
2015-07-15T12:00:00Z,28.264965,0.183832
2015-08-15T12:00:00Z,29.816043,0.18253
2015-09-15T12:00:00Z,28.803663,0.055851
2015-10-15T12:00:00Z,25.824919,0.149557
2015-11-15T12:00:00Z,22.369983,0.164317
2015-12-15T12:00:00Z,19.224155,0.202252
2016-01-15T12:00:00Z,15.518368,0.288573
2016-02-15T12:00:00Z,16.555405,0.161572
2016-03-15T12:00:00Z,19.285545,0.074616
2016-04-15T12:00:00Z,22.417824,0.045844
2016-05-15T12:00:00Z,25.795762,0.057172
2016-06-15T12:00:00Z,28.911977,0.053227
2016-07-15T12:00:00Z,29.568721,0.158721
2016-08-15T12:00:00Z,30.038446,0.025194
2016-09-15T12:00:00Z,30.091704,0.091154
2016-10-15T12:00:00Z,26.932757,0.078669
2016-11-15T12:00:00Z,23.178202,0.120165
2016-12-15T12:00:00Z,19.895647,0.202337
2017-01-15T12:00:00Z,18.035893,0.205821
2017-02-15T12:00:00Z,18.383413,0.114026
2017-03-15T12:00:00Z,20.164109,0.129382
2017-04-15T12:00:00Z,23.396919,0.032686
2017-05-15T12:00:00Z,25.261758,0.020163
2017-06-15T12:00:00Z,28.812544,0.038049
2017-07-15T12:00:00Z,30.341374,0.082465
2017-08-15T12:00:00Z,29.976218,0.131303
2017-09-15T12:00:00Z,28.192817,0.054584
2017-10-15T12:00:00Z,26.579871,0.042749
2017-11-15T12:00:00Z,22.693544,0.143657
2017-12-15T12:00:00Z,18.223558,0.242702
2018-01-15T12:00:00Z,15.557902,0.324974
2018-02-15T12:00:00Z,18.389093,0.210564
2018-03-15T12:00:00Z,20.221909,0.075461
2018-04-15T12:00:00Z,21.852507,0.057446
2018-05-15T12:00:00Z,26.767222,0.123374
2018-06-15T12:00:00Z,28.821549,0.159942
2018-07-15T12:00:00Z,28.840937,0.202267
2018-08-15T12:00:00Z,29.405536,0.150768
2018-09-15T12:00:00Z,29.084309,0.023121
2018-10-15T12:00:00Z,26.322766,0.095773
2018-11-15T12:00:00Z,21.290228,0.219815
2018-12-15T12:00:00Z,17.049759,0.270967
2019-01-15T12:00:00Z,14.937243,0.262227
2019-02-15T12:00:00Z,16.007682,0.193053
2019-03-15T12:00:00Z,18.1426,0.127034
2019-04-15T12:00:00Z,21.408267,0.066051
2019-05-15T12:00:00Z,25.666752,0.048576
2019-06-15T12:00:00Z,29.533975,0.055546
2019-07-15T12:00:00Z,29.518792,0.041403
2019-08-15T12:00:00Z,30.264949,0.118763
2019-09-15T12:00:00Z,29.850204,0.049913
2019-10-15T12:00:00Z,26.414974,0.106732
2019-11-15T12:00:00Z,19.686546,0.259589
2019-12-15T12:00:00Z,17.141592,0.253328
2020-01-15T12:00:00Z,16.585454,0.215697
2020-02-15T12:00:00Z,15.361189,0.221612
2020-03-15T12:00:00Z,20.337561,0.091318
2020-04-15T12:00:00Z,23.276645,0.07309
2020-05-15T12:00:00Z,26.264042,0.097334
2020-06-15T12:00:00Z,28.734432,0.030709
2020-07-15T12:00:00Z,29.716559,0.143885
2020-08-15T12:00:00Z,30.268639,0.057302
2020-09-15T12:00:00Z,28.555244,0.088037
2020-10-15T12:00:00Z,26.007213,0.059183
2020-11-15T12:00:00Z,22.462594,0.078412
2020-12-15T12:00:00Z,17.906066,0.201615
2021-01-15T12:00:00Z,15.057998,0.327013
2021-02-15T12:00:00Z,14.286386,0.207838
2021-03-15T12:00:00Z,17.294018,0.182772
2021-04-15T12:00:00Z,21.750482,0.206809
2021-05-15T12:00:00Z,25.446897,0.124375
2021-06-15T12:00:00Z,29.187848,0.049703
2021-07-15T12:00:00Z,29.804113,0.074514
2021-08-15T12:00:00Z,30.62809,0.043647
2021-09-15T12:00:00Z,29.084987,0.032502
2021-10-15T12:00:00Z,26.492501,0.074685
2021-11-15T12:00:00Z,21.620913,0.164542
2021-12-15T12:00:00Z,20.109984,0.164728
2022-01-15T12:00:00Z,17.049696,0.287168
2022-02-15T12:00:00Z,13.024047,0.200335
2022-03-15T12:00:00Z,16.316935,0.160673
2022-04-15T12:00:00Z,22.171315,0.027323
2022-05-15T12:00:00Z,26.96944,0.048496
2022-06-15T12:00:00Z,29.003048,0.089624
2022-07-15T12:00:00Z,30.052249,0.087328
2022-08-15T12:00:00Z,30.038267,0.039272
2022-09-15T12:00:00Z,29.729356,0.060923
2022-10-15T12:00:00Z,25.944265,0.107081
2022-11-15T12:00:00Z,22.198459,0.107561
2022-12-15T12:00:00Z,17.02009,0.246975
2023-01-15T12:00:00Z,15.760308,0.287049
2023-02-15T12:00:00Z,15.518718,0.114342
2023-03-15T12:00:00Z,20.864784,0.152713
2023-04-15T12:00:00Z,22.606773,0.083763
2023-05-15T12:00:00Z,26.360914,0.109213
2023-06-15T12:00:00Z,29.584481,0.172015
2023-07-15T12:00:00Z,29.844672,0.339796
2023-08-15T12:00:00Z,30.2654,0.221198
2023-09-15T12:00:00Z,30.289623,0.103913
2023-10-15T12:00:00Z,26.483595,0.088682
2023-11-15T12:00:00Z,20.681485,0.199097
2023-12-15T12:00:00Z,17.355795,0.227412
